全球星 M064星 (GLOBALSTAR M064)

导读

GLOBALSTAR M064是全球星(Globalstar)低轨移动通信星座中的一员,由美国主导建设,于2000年2月8日发射升空。该卫星运行在约1400千米高度的近地轨道,属于星座组网卫星,主要为全球南北纬70°以内区域提供话音、数据、短信息、定位等卫星移动通信服务,尤其在偏远地区、海洋等场景发挥通信支撑作用,单星设计寿命7.5年,采用CDMA技术支持多用户并发通信,是全球卫星通信基础设施的组成部分。

基本信息
目录编号:
26084
目录名称:
GLOBALSTAR M064
国际标识:
2000-008D
轨道中心:
EARTH
卫星名称:
全球星 M064星
卫星全名:
全球星 M064星 (GLOBALSTAR M064)
卫星状态:
在轨 (已飞行9666 天)
发射日期:
2000-02-08 UTC
国别 :
(GLOB)
星等 :
--
轨道信息
数据来源 国际轨道数据 AOE轨道数据
星历时间 2026-07-27T18:00:39+0800
12小时前
查看轨道信息
2026-07-25T10:00:00+0800
2天前
查看轨道信息
半长轴 8110.694km 8110.693km
偏心率 0.0001378 0.0001347
轨道倾角 52.000° 52.000°
近地点辐角 120.943° 116.899°
升交点赤经 218.378° 224.554°
平近点角 239.154° 332.982°
近地点 1731.439km 1731.463km
远地点 1733.675km 1733.649km
周期 121.156分钟 121.156分钟
每日圈数 11.885455 11.885457
详细信息
固有亮度:
5
最大亮度:
7.9
平衡模式:
三轴稳定
覆盖范围:
全球
运营商:
全球星公司
运营商所在国:
美国
使用方式:
暂无
卫星简介
全球星星座由48颗卫星加8颗备份星组成。这些卫星分布在8个倾角为52度的圆形轨道平面上,每个轨道平面6颗卫星,另有1 颗备用星。轨道高度约为1414km,传输时延和处理时延小于300ms,整个系统的覆盖区为南北纬70度以内的地区。该卫星已退役。
2D轨道图
3D轨道图
轨道高度分析图
轨道倾角分析图
轨道综合分析图
查看轨道综合分析图